This is the latest recevied weather packets stored in our database for station/object KA0EGE. If no packets are shown the sender has not sent any weather packets the latest 10 day(s).
| Time | Temp. | Humidity | Pressure | Rain* | Wind** | Luminosity | Snow |
|---|---|---|---|---|---|---|---|
| 1777838724 | 25.56° C | 33% | 1020.8 hPa | 0 mm | - | 704 W/m² | - |
| 1777838421 | 25° C | 31% | 1021 hPa | 0 mm | - | 732 W/m² | - |
| 1777838119 | 25° C | 34% | 1021.1 hPa | 0 mm | - | 761 W/m² | - |
| 1777837815 | 25° C | 35% | 1021.2 hPa | 0 mm | - | 744 W/m² | - |
| 1777837513 | 25° C | 34% | 1021.2 hPa | 0 mm | - | 670 W/m² | - |
| 1777837212 | 25° C | 35% | 1021.4 hPa | 0 mm | - | 625 W/m² | - |
| 1777836909 | 24.44° C | 36% | 1021.5 hPa | 0 mm | - | 681 W/m² | - |
| 1777836604 | 25° C | 32% | 1021.7 hPa | 0 mm | - | 694 W/m² | - |
| 1777836301 | 25° C | 33% | 1021.6 hPa | 0 mm | - | 767 W/m² | - |
| 1777835996 | 25.56° C | 33% | 1021.8 hPa | 0 mm | - | 710 W/m² | - |
| 1777835694 | 24.44° C | 33% | 1021.8 hPa | 0 mm | - | 807 W/m² | - |
| 1777835390 | 25° C | 32% | 1021.7 hPa | 0 mm | - | 666 W/m² | - |
| 1777835088 | 25° C | 35% | 1022 hPa | 0 mm | - | 765 W/m² | - |
| 1777834785 | 24.44° C | 35% | 1022 hPa | 0 mm | - | 615 W/m² | - |
| 1777834481 | 23.89° C | 35% | 1022.2 hPa | 0 mm | - | 870 W/m² | - |
| 1777834180 | 23.89° C | 37% | 1022.4 hPa | 0 mm | - | 865 W/m² | - |
| 1777833877 | 24.44° C | 32% | 1022.5 hPa | 0 mm | - | 779 W/m² | - |
| 1777833573 | 23.89° C | 37% | 1022.4 hPa | 0 mm | - | 861 W/m² | - |
| 1777833270 | 24.44° C | 33% | 1022.5 hPa | 0 mm | - | 866 W/m² | - |
| 1777832967 | 23.89° C | 35% | 1022.5 hPa | 0 mm | - | 856 W/m² | - |
| 1777832666 | 23.89° C | 33% | 1022.5 hPa | 0 mm | - | 831 W/m² | - |
| 1777832363 | 24.44° C | 34% | 1022.6 hPa | 0 mm | - | 876 W/m² | - |
| 1777832060 | 23.89° C | 39% | 1022.5 hPa | 0 mm | - | 858 W/m² | - |
| 1777831756 | 23.89° C | 32% | 1022.6 hPa | 0 mm | - | 839 W/m² | - |
| 1777831455 | 23.89° C | 33% | 1022.4 hPa | 0 mm | - | 878 W/m² | - |
* Rain latest hour (hover to see other rain measurements)
** Current wind speed in m/s (hover to see current wind gust speed)